Regional Weather Roundup
Issued by NWS Little Rock, AR

Home | Current Version | Previous Version | Graphics & Text | Print | Product List | Glossary On
Versions: 1 2 3 4 5 6 7 8 9 10 11 12 13 14 15 16 17 18 19 20 21 22 23 24 25 26 27 28 29 30 31 32 33
000
ASUS44 KLZK 231105
RWRLZK

WEATHER ROUNDUP FOR ARKANSAS
NATIONAL WEATHER SERVICE LITTLE ROCK AR
500 AM CST FRI FEB 23 2018

NOTE: "FAIR" INDICATES FEW OR NO CLOUDS BELOW 12,000 FEET WITH NO
SIGNIFICANT WEATHER AND/OR OBSTRUCTIONS TO VISIBILITY.

ARZ001-003-010-029-231200-
NORTHWEST ARKANSAS

CITY           SKY/WX    TMP DP  RH WIND       PRES   REMARKS
FAYETTEVILLE   CLOUDY    44  44 100 CALM      30.23R FOG
FORT SMITH     CLOUDY    46  46 100 W5        30.25S FOG
HARRISON       FOG       44  44 100 CALM      30.23R VSB 1/2
BENTONVILLE    CLOUDY    41  40  96 NW5       30.25R FOG
SILOAM SPGS    CLOUDY    41  40  96 CALM      30.25R
HIGHFILL       CLOUDY    41  41 100 CALM      30.24R FOG
$$

ARZ004-005-016-231200-
NORTH CENTRAL ARKANSAS

CITY           SKY/WX    TMP DP  RH WIND       PRES   REMARKS
BATESVILLE     RAIN      52  51  97 NW3       30.21S
FLIPPIN        FOG       44  44 100 N3        30.24R VSB 3/4
MTN HOME       CLOUDY    44  44 100 N3        30.22R FOG
$$

ARZ040-041-231200-
WEST CENTRAL ARKANSAS

CITY           SKY/WX    TMP DP  RH WIND       PRES   REMARKS
MENA           CLOUDY    50  48  93 CALM      30.22R
MOUNT IDA      LGT RAIN  49  49 100 CALM      30.20R
$$

ARZ009-017-025-026-028-231200-
NORTHEAST ARKANSAS

CITY           SKY/WX    TMP DP  RH WIND       PRES   REMARKS
JONESBORO      TSTM      54  54 100 W7        30.21R FOG
NEWPORT        RAIN      50  50 100 S7        30.22R
WALNUT RIDGE   RAIN      48  48 100 S5        30.22R
BLYTHEVILLE    LGT RAIN  56  56 100 W8        30.22R
$$

ARZ022-023-033-042-044-231200-
CENTRAL ARKANSAS

CITY           SKY/WX    TMP DP  RH WIND       PRES   REMARKS
LITTLE ROCK    TSTM      48  48 100 W6        30.23R FOG
N LITTLE ROCK    N/A     49  49 100 CALM      30.22R
JACKSONVILLE   RAIN      49  49 100 W7        30.21S FOG
SEARCY         RAIN      49  32  52 W3        30.22R
HOT SPRINGS    RAIN      49  49 100 CALM      30.25R FOG
RUSSELLVILLE   CLOUDY    47  47 100 NW3       30.23R
CLINTON        LGT RAIN  48  48 100 CALM      30.22R
$$

ARZ036-231200-
EAST ARKANSAS

CITY           SKY/WX    TMP DP  RH WIND       PRES   REMARKS
WEST MEMPHIS   CLOUDY    57  57 100 W3        30.21R
$$

ARZ050-053-066-070-073-231200-
SOUTHWEST ARKANSAS

CITY           SKY/WX    TMP DP  RH WIND       PRES   REMARKS
ARKADELPHIA    RAIN      48  48 100 CALM      30.26R
CAMDEN         DRIZZLE   50  46  87 CALM      30.25R
TEXARKANA      LGT RAIN  49  49 100 SE3       30.24R
EL DORADO      LGT RAIN  49  49 100 N3        30.26R FOG
DE QUEEN       LGT RAIN  48  48 100 SE6       30.20F
$$

ARZ056-057-069-231200-
SOUTHEAST ARKANSAS

CITY           SKY/WX    TMP DP  RH WIND       PRES   REMARKS
PINE BLUFF     CLOUDY    49  49 100 MISG      30.26R FOG
STUTTGART      CLOUDY    49  49 100 E6        30.23S FOG
MONTICELLO     FOG       54  53  97 CALM      30.23R VSB 3/4

$$






USA.gov is the U.S. government's official web portal to all federal, state and local government web resources and services.